| time (UTC) | temp C | wind direction | speed KPH | gust KPH | rain 1hr cm | rain 24hr cm | rain mn cm | humidity % | barometer mb |
| 20260504015017 | 10 | 0.0 | 0.0 | 0.00 | 0.00 | 0.00 | 57 | 1016.4 | |
| 20260504014017 | 10 | 0.0 | 0.0 | 0.00 | 0.00 | 0.00 | 56 | 1016.4 | |
| 20260504013017 | 11 | 0.0 | 0.0 | 0.00 | 0.00 | 0.00 | 54 | 1016.3 | |
| 20260504012017 | 11 | 0.0 | 0.0 | 0.00 | 0.00 | 0.00 | 52 | 1016.3 | |
| 20260504011017 | 11 | 0.0 | 0.0 | 0.00 | 0.00 | 0.00 | 50 | 1016.2 | |
| 20260504010017 | 11 | 0.0 | 0.0 | 0.00 | 0.00 | 0.00 | 49 | 1016.3 | |
| 20260504005017 | 12 | 0.0 | 0.0 | 0.00 | 0.00 | 0.00 | 46 | 1016.1 | |
| 20260504004017 | 12 | 0.0 | 0.0 | 0.00 | 0.00 | 0.00 | 44 | 1016.0 | |
| 20260504003017 | 13 | 0.0 | 0.0 | 0.00 | 0.00 | 0.00 | 43 | 1015.9 | |
| 20260504002017 | 14 | 0.0 | 0.0 | 0.00 | 0.00 | 0.00 | 42 | 1015.9 | |
| 20260504001017 | 14 | 0.0 | 0.0 | 0.00 | 0.00 | 0.00 | 40 | 1015.8 | |
| 20260504000017 | 15 | 0.0 | 0.0 | 0.00 | 0.00 | 0.00 | 39 | 1015.7 | |
| 20260503235017 | 15 | 0.0 | 0.0 | 0.00 | 0.00 | 0.00 | 37 | 1015.6 | |
| 20260503234016 | 16 | 0.0 | 0.0 | 0.00 | 0.00 | 0.00 | 35 | 1015.6 | |
| 20260503233017 | 16 | 0.0 | 0.0 | 0.00 | 0.00 | 0.00 | 34 | 1015.6 | |
| 20260503232017 | 16 | 0.0 | 0.0 | 0.00 | 0.00 | 0.00 | 33 | 1015.4 | |
| 20260503231016 | 16 | 0.0 | 0.0 | 0.00 | 0.00 | 0.00 | 32 | 1015.3 | |
| 20260503230017 | 16 | 0.0 | 0.0 | 0.00 | 0.00 | 0.00 | 32 | 1015.4 | |
| 20260503225017 | 16 | 0.0 | 6.4 | 0.00 | 0.00 | 0.00 | 31 | 1015.4 | |
| 20260503224017 | 16 | 0.0 | 3.2 | 0.00 | 0.00 | 0.00 | 31 | 1015.5 | |
| 20260503223017 | 17 | 0.0 | 4.8 | 0.00 | 0.00 | 0.00 | 31 | 1015.5 | |
| 20260503222017 | 17 | 338 | 1.6 | 8.0 | 0.00 | 0.00 | 0.00 | 30 | 1015.5 |
| 20260503221017 | 17 | 0.0 | 6.4 | 0.00 | 0.00 | 0.00 | 31 | 1015.5 | |
| 20260503220017 | 17 | 0.0 | 6.4 | 0.00 | 0.00 | 0.00 | 32 | 1015.5 | |
| 20260503215017 | 17 | 0.0 | 4.8 | 0.00 | 0.00 | 0.00 | 29 | 1015.6 | |
| 20260503214017 | 17 | 0.0 | 4.8 | 0.00 | 0.00 | 0.00 | 30 | 1015.7 | |
| 20260503213016 | 17 | 248 | 3.2 | 17.7 | 0.00 | 0.00 | 0.00 | 29 | 1015.7 |
| 20260503212016 | 17 | 248 | 6.4 | 19.3 | 0.00 | 0.00 | 0.00 | 29 | 1015.7 |
| 20260503211017 | 17 | 270 | 3.2 | 17.7 | 0.00 | 0.00 | 0.00 | 29 | 1015.6 |
| 20260503210016 | 17 | 315 | 1.6 | 8.0 | 0.00 | 0.00 | 0.00 | 30 | 1015.8 |
| 20260503205017 | 17 | 270 | 4.8 | 14.5 | 0.00 | 0.00 | 0.00 | 30 | 1015.9 |
| 20260503204017 | 17 | 270 | 8.0 | 17.7 | 0.00 | 0.00 | 0.00 | 29 | 1015.7 |
| 20260503203017 | 17 | 225 | 1.6 | 12.9 | 0.00 | 0.00 | 0.00 | 30 | 1015.8 |
| 20260503202017 | 17 | 293 | 6.4 | 19.3 | 0.00 | 0.00 | 0.00 | 29 | 1016.1 |
| 20260503201017 | 18 | 248 | 4.8 | 12.9 | 0.00 | 0.00 | 0.00 | 29 | 1016.3 |
| 20260503200016 | 17 | 270 | 3.2 | 16.1 | 0.00 | 0.00 | 0.00 | 31 | 1016.2 |
| 20260503195016 | 17 | 338 | 1.6 | 8.0 | 0.00 | 0.00 | 0.00 | 30 | 1016.4 |
| 20260503194016 | 17 | 0.0 | 4.8 | 0.00 | 0.00 | 0.00 | 31 | 1016.5 | |
| 20260503193017 | 17 | 293 | 3.2 | 14.5 | 0.00 | 0.00 | 0.00 | 32 | 1016.7 |
| 20260503192017 | 17 | 0 | 3.2 | 14.5 | 0.00 | 0.00 | 0.00 | 31 | 1016.8 |
| 20260503191017 | 17 | 270 | 1.6 | 6.4 | 0.00 | 0.00 | 0.00 | 31 | 1016.9 |
| 20260503190016 | 17 | 293 | 3.2 | 12.9 | 0.00 | 0.00 | 0.00 | 30 | 1017.1 |
| 20260503185016 | 17 | 0.0 | 4.8 | 0.00 | 0.00 | 0.00 | 33 | 1017.2 | |
| 20260503184017 | 16 | 0 | 3.2 | 14.5 | 0.00 | 0.00 | 0.00 | 33 | 1017.3 |
| 20260503183016 | 16 | 0.0 | 4.8 | 0.00 | 0.00 | 0.00 | 34 | 1017.5 | |
| 20260503182016 | 16 | 270 | 3.2 | 12.9 | 0.00 | 0.00 | 0.00 | 32 | 1017.5 |
| 20260503181016 | 16 | 248 | 1.6 | 11.3 | 0.00 | 0.00 | 0.00 | 33 | 1017.5 |
| 20260503180016 | 17 | 0 | 1.6 | 6.4 | 0.00 | 0.00 | 0.00 | 33 | 1017.6 |
| 20260503175016 | 16 | 248 | 3.2 | 16.1 | 0.00 | 0.00 | 0.00 | 33 | 1017.6 |
| 20260503174016 | 16 | 270 | 3.2 | 17.7 | 0.00 | 0.00 | 0.00 | 34 | 1017.8 |
| 20260503173017 | 15 | 270 | 3.2 | 14.5 | 0.00 | 0.00 | 0.00 | 33 | 1017.9 |
| 20260503172017 | 16 | 270 | 1.6 | 11.3 | 0.00 | 0.00 | 0.00 | 35 | 1018.0 |
| 20260503171016 | 16 | 315 | 1.6 | 14.5 | 0.00 | 0.00 | 0.00 | 34 | 1018.0 |